Regional Weather Roundup
Issued by NWS Cleveland, OH

Home | Current Version | Previous Version | Graphics & Text | Print | Product List | Glossary On
Versions: 1 2 3 4 5 6 7 8 9 10 11 12 13 14 15 16 17 18 19 20 21 22 23 24 25 26 27 28 29 30 31 32 33 34 35 36 37 38 39 40 41 42 43 44 45 46 47 48 49 50
000
ASUS41 KCLE 030710
RWRCLE
OHIO REGIONAL WEATHER ROUNDUP
NATIONAL WEATHER SERVICE CLEVELAND, OH
300 AM EDT SUN MAY 03 2015

NOTE: "FAIR" INDICATES FEW OR NO CLOUDS BELOW 12,000 FEET WITH NO
SIGNIFICANT WEATHER AND/OR OBSTRUCTIONS TO VISIBILITY.

OHZ001>008-015>018-024>027-034-035-043-044-030800-
   NORTHWEST OHIO

CITY           SKY/WX    TMP DP  RH WIND       PRES   REMARKS
DEFIANCE       PTCLDY    53  42  66 SW3       30.03S
FINDLAY        PTCLDY    53  42  66 MISG      30.03S
TOLEDO EXPRESS PTCLDY    50  41  71 CALM      30.02S
TOLEDO EXEC    CLEAR     53  40  61 SW3       30.03S
LIMA           PTCLDY    54  43  66 S8        30.04S
$$

OHZ009>014-019>023-028>033-038-089-030800-
   NORTHEAST OHIO

CITY           SKY/WX    TMP DP  RH WIND       PRES   REMARKS
CLE-HOPKINS    CLEAR     50  41  71 S5        30.05S
CLE-LAKEFRONT  CLEAR     60  40  47 S9        30.02S
CUY CO. ARPT   NOT AVBL
LORAIN-ELYRIA  CLEAR     52  41  66 S5        30.04S
ASHTABULA      MOCLDY    51  38  60 CALM      30.04S
AKRON-CANTON   CLEAR     55  41  59 SW3       30.06S
WOOSTER        CLEAR     47  41  80 CALM      30.06S
MANSFIELD      CLEAR     53  41  63 S5        30.05F
YOUNGSTOWN     CLEAR     56  36  47 S6        30.05S
$$

OHZ042-051>053-060>062-070>072-077>081-030800-
  SOUTHWEST OHIO

CITY           SKY/WX    TMP DP  RH WIND       PRES   REMARKS
CINC-COVINGTON PTCLDY    52  46  80 CALM      30.07S
CINC-LUNKEN    PTCLDY    48  47  96 CALM      30.08S FOG
HAMILTON       PTCLDY    49  46  90 CALM      30.07F
DAYTON         PTCLDY    59  42  53 S7        30.07S
WRIGHT-PAT AFB PTCLDY    50  47  90 CALM      30.06S
DAYTON GENERAL PTCLDY    56  43  61 S5        30.06S
WILMINGTON     PTCLDY    56  42  59 CALM      30.07S
$$

OHZ036-037-039>041-045>050-054>059-063>069-073>076-082>088-030800-
  CENTRAL AND SOUTHEAST OHIO

CITY           SKY/WX    TMP DP  RH WIND       PRES   REMARKS
COLUMBUS       PTCLDY    52  46  80 CALM      30.06S
OSU AIRPORT    CLEAR     54  41  61 CALM      30.06S
BOLTON FIELD   CLEAR     55  43  64 SW3       30.06F
RICKENBACK AFB CLEAR     53  42  66 CALM      30.06S
NEWARK         CLEAR     45  43  93 CALM      30.06S
MARION         PTCLDY    50  42  74 S3        30.05F
LANCASTER      CLEAR     48  43  82 CALM      30.07S
ZANESVILLE     CLEAR     48  41  76 CALM      30.06F
NEW PHILLY     PTCLDY    48  42  80 CALM      30.07S
$$



USA.gov is the U.S. government's official web portal to all federal, state and local government web resources and services.